Helicity
63 54 57 41 48 50 57 66 63 69 69 88 75 72 71 69 69 92 102 82 72 89 100 109 106 98 102 85 67 56 57 72 108 130 110 68 61 58 70 73 76 65 44
63 54 57 61 61 63 73 79 86 80 80 87 103 99 102 91 81 92 99 101 96 105 102 111 104 98 100 95 86 78 85 73 76 108 130 86 73 75 92 115 114 117 94
71 68 65 59 67 66 66 73 78 78 84 83 79 87 91 89 89 99 103 115 121 89 99 114 132 141 133 121 102 108 93 72 71 72 86 96 91 66 68 74 99 149 208
75 71 66 70 72 64 76 78 85 79 74 77 79 85 95 89 89 100 125 123 135 131 112 116 145 149 140 128 114 103 118 112 84 78 119 151 199 225 207 173 164 127 91
82 74 78 78 64 71 75 77 77 79 84 85 76 82 83 87 84 96 91 126 124 116 124 140 111 147 187 189 178 159 142 122 120 121 142 134 135 190 202 286 223 241 123
87 88 83 73 65 70 68 67 72 84 94 90 83 85 83 90 94 101 123 131 131 123 117 130 114 124 128 159 180 184 156 128 103 102 94 67 59 74 99 -22 33 -37 -8
97 83 74 71 65 68 73 76 82 75 75 87 86 79 81 80 85 106 124 128 143 129 130 136 139 142 125 94 176 189 175 152 127 79 52 38 50 49 18 12 32 17 33
89 77 78 73 72 69 65 67 73 79 90 104 109 117 98 108 101 95 117 131 152 150 126 129 127 127 124 141 114 166 182 155 132 118 97 77 54 40 47 25 9 52 106
99 97 93 84 74 64 72 80 89 87 105 123 109 138 143 133 215 188 105 132 119 119 105 113 111 119 128 125 127 137 167 153 122 97 109 105 85 66 63 81 95 94 162
109 106 93 81 77 80 86 92 100 108 123 124 154 127 139 176 219 200 159 96 92 112 109 110 107 117 124 120 97 153 174 141 107 99 103 115 136 111 114 150 184 290 209
126 106 89 84 83 83 89 105 117 127 142 156 174 173 154 151 143 183 193 176 105 76 104 108 115 100 101 102 87 110 150 134 105 132 199 189 148 136 167 195 167 150 205
148 114 105 97 87 96 101 110 120 132 146 153 159 171 176 193 169 164 171 128 175 169 110 101 101 113 87 100 103 122 132 127 108 98 115 130 117 125 115 69 83 78 115
190 151 111 102 104 105 114 122 129 137 149 161 158 159 153 150 155 164 164 158 197 162 132 101 111 122 135 123 116 119 133 116 115 93 90 86 72 105 142 148 112 83 105
198 165 137 119 112 113 118 120 131 140 144 152 137 141 147 145 148 148 144 161 167 139 129 115 106 124 150 134 121 118 94 107 93 64 87 100 101 93 128 148 169 143 124
226 196 175 153 131 114 109 117 131 136 132 125 125 127 137 144 162 145 142 134 149 161 141 147 112 124 105 133 132 93 83 111 121 93 98 125 166 125 110 110 113 100 114
238 209 187 156 132 120 103 118 134 125 126 129 126 126 135 145 153 152 135 131 145 165 224 166 152 124 125 136 133 98 125 144 147 147 117 143 163 148 136 131 109 120 159
268 237 211 162 155 125 102 140 126 131 119 121 130 132 135 148 151 146 154 156 144 144 172 256 247 177 191 139 156 162 191 163 167 177 135 154 147 134 117 117 145 128 140
254 194 188 205 164 73 143 108 115 119 113 127 138 142 135 162 162 153 152 145 128 128 179 192 272 275 263 198 190 163 155 173 205 115 79 126 123 121 104 149 127 103 115
278 279 256 228 101 202 163 120 123 116 131 117 129 130 140 156 166 173 127 105 116 122 127 142 228 281 280 242 201 163 185 204 204 251 169 183 133 93 152 175 127 106 88
329 296 258 181 196 239 125 121 127 134 129 151 159 135 137 141 144 142 122 115 113 97 97 100 149 201 222 177 149 165 199 165 191 250 307 239 155 148 159 121 120 113 93
367 285 248 221 291 203 162 135 145 129 121 119 111 107 111 114 97 99 117 129 102 117 116 129 125 130 154 158 131 146 178 132 149 152 198 213 209 187 128 95 92 74 59
361 353 346 310 214 197 148 125 117 119 112 97 93 98 96 84 88 116 119 78 84 108 102 149 121 122 115 131 150 172 162 129 109 98 132 142 156 173 155 94 82 60 59
439 400 270 171 187 178 147 115 102 108 123 100 87 83 75 75 84 69 93 146 150 130 110 83 81 94 119 113 157 165 134 115 98 74 105 102 101 109 88 82 69 60 58
196 130 112 136 161 170 160 121 81 94 100 93 81 69 74 75 94 143 163 141 112 93 90 94 109 123 106 119 119 98 114 126 115 91 82 83 57 68 69 82 79 77 60
118 104 102 116 146 170 126 89 101 77 89 87 63 54 57 65 87 102 113 92 104 126 105 106 121 116 99 84 100 135 122 108 92 70 66 70 59 73 56 70 86 80 61
98 94 106 125 135 152 119 103 86 100 90 91 70 54 51 44 56 92 102 86 95 102 139 176 181 167 154 153 152 81 50 77 86 73 61 79 80 78 66 80 59 50 54
Wind_Speed
23 23 24 24 24 26 31 33 36 38 38 38 31 30 29 32 32 35 37 37 37 41 45 46 47 47 47 45 44 39 38 38 42 46 49 46 45 45 48 52 50 47 45
22 22 24 26 27 29 33 36 38 38 39 36 35 34 35 35 33 36 38 39 39 42 44 47 48 49 49 49 49 47 44 42 44 44 46 48 48 47 44 43 44 46 46
23 23 23 24 28 31 32 34 35 37 37 36 36 35 35 34 33 34 37 39 41 38 40 46 49 51 51 52 51 53 52 48 46 47 46 46 47 43 43 48 45 45 47
25 24 23 24 26 29 32 34 37 40 38 39 41 38 39 38 37 36 38 39 43 44 41 42 49 51 52 51 53 53 53 52 51 45 39 38 34 37 40 44 41 39 40
26 27 26 26 26 28 31 35 36 40 43 42 43 43 41 41 40 38 39 42 43 45 46 42 44 45 49 53 54 55 56 54 51 44 37 36 36 33 37 45 50 53 51
27 29 29 29 28 29 32 36 38 39 42 45 47 47 42 41 41 39 42 44 44 47 46 45 41 40 47 50 53 55 55 52 46 37 33 34 34 39 40 38 46 62 52
26 28 30 30 30 32 35 38 40 44 46 44 51 50 45 42 42 42 43 45 45 46 46 46 47 46 44 46 52 54 52 47 42 35 32 34 35 38 40 42 45 41 42
25 28 29 30 31 34 36 38 41 46 46 45 50 54 57 46 41 41 43 45 45 46 46 46 46 46 48 49 50 50 49 45 40 37 37 39 42 40 39 40 49 45 34
25 27 29 31 32 35 38 40 41 45 50 46 45 50 58 54 54 43 43 45 47 47 45 42 43 45 48 47 47 47 48 45 42 38 40 43 45 45 43 37 33 25 13
27 28 30 32 34 36 39 41 42 46 48 52 47 45 46 51 57 59 45 45 45 45 43 41 42 44 45 43 39 44 44 42 41 38 34 32 31 29 25 24 23 18 17
26 28 31 34 37 39 42 44 46 46 47 50 51 50 48 47 47 52 60 50 45 40 38 40 44 43 40 39 38 40 41 39 36 31 29 27 26 25 22 25 21 21 23
30 30 32 34 36 40 45 47 47 49 49 49 50 50 49 50 49 48 51 51 52 39 37 42 41 38 36 36 36 38 39 38 36 32 30 30 29 30 30 27 27 29 30
31 32 31 36 40 43 46 48 48 49 49 49 49 48 47 47 48 50 50 50 48 36 39 41 38 36 35 34 35 36 38 37 37 36 31 33 32 31 30 31 30 30 30
31 29 30 36 41 45 47 47 49 50 50 49 49 49 49 48 47 46 46 45 45 38 37 40 34 34 34 34 32 33 35 38 36 36 31 32 30 30 32 31 32 36 38
33 34 35 40 43 45 46 47 49 51 49 49 49 48 47 47 45 44 41 37 39 43 39 34 38 34 32 29 31 30 30 37 36 31 30 26 26 29 29 31 33 36 36
36 39 41 43 44 45 46 47 50 50 50 49 48 47 45 44 42 39 37 35 36 38 45 36 43 37 29 28 27 26 33 35 37 34 29 27 27 27 27 30 32 33 34
40 42 43 43 44 46 47 50 50 50 49 49 47 46 45 41 41 36 36 36 37 36 37 43 39 35 31 26 27 31 36 39 43 39 26 23 22 25 27 25 27 32 34
43 44 42 43 45 47 51 49 50 47 49 50 48 47 44 40 37 35 36 37 38 39 44 55 45 35 33 28 31 33 32 37 41 33 22 21 21 21 22 22 27 30 32
42 41 42 45 45 54 51 49 48 49 49 48 47 45 43 39 38 37 40 45 48 52 50 47 48 38 36 33 30 30 32 34 32 31 22 18 19 23 19 20 25 30 33
40 42 42 48 54 48 47 46 46 47 49 46 44 44 42 43 43 43 44 43 45 53 52 44 39 35 36 38 32 28 29 28 26 26 26 24 21 19 19 24 28 31 32
39 40 42 49 45 44 42 41 43 45 44 46 46 45 42 43 47 47 41 37 41 55 52 40 41 40 29 34 31 30 27 22 25 26 25 26 23 22 24 26 28 30 31
40 42 47 42 42 39 35 35 39 43 44 42 43 41 43 46 43 38 39 35 38 44 54 43 40 43 34 40 33 25 20 21 23 26 22 23 23 24 29 26 26 29 31
37 39 37 34 33 30 28 35 39 38 37 35 39 41 44 43 39 43 38 32 33 34 42 46 40 39 39 38 27 21 19 21 23 18 17 20 22 24 25 26 27 30 32
35 30 28 30 28 27 25 28 29 30 32 36 40 44 43 45 33 28 29 33 38 39 42 37 33 34 37 30 22 21 14 17 19 17 21 21 18 22 23 27 29 31 32
35 36 34 28 26 23 21 24 26 32 34 35 39 41 40 35 29 23 28 31 29 31 27 22 21 24 27 23 16 9 11 11 19 19 21 23 19 22 23 26 32 32 32
38 35 28 26 22 21 19 20 24 27 31 35 40 39 38 37 27 19 19 19 20 23 21 19 21 22 21 18 18 15 9 12 15 19 21 23 19 24 27 30 28 28 32
Wind_Direction
33 38 32 35 35 26 10 7 1 359 359 0 11 12 14 10 6 358 351 349 351 345 339 336 335 334 334 332 330 330 328 323 315 312 308 304 302 301 297 294 295 296 297
30 31 27 20 20 14 5 358 354 355 353 356 357 358 358 357 358 352 347 344 343 341 337 333 331 329 327 326 324 322 319 319 318 313 312 306 300 299 300 298 295 295 296
18 19 22 20 12 3 2 360 356 354 352 352 352 352 352 351 352 351 346 344 341 342 341 335 330 327 324 322 320 319 316 312 312 311 308 304 305 303 297 293 294 295 295
0 10 17 16 11 5 359 356 353 347 349 346 343 347 346 346 347 346 344 343 339 339 339 338 334 329 326 323 320 319 316 313 311 310 312 308 309 307 305 298 300 296 296
349 353 360 4 6 2 357 352 350 346 341 342 340 340 342 341 341 342 340 340 338 336 334 336 336 333 330 326 322 319 316 314 311 308 307 306 304 302 302 300 287 292 300
343 344 349 352 356 356 351 348 346 346 343 339 337 336 338 338 337 338 337 337 337 336 335 334 333 333 331 325 321 319 319 316 314 310 308 304 302 298 294 296 295 291 292
339 340 341 345 348 347 344 343 342 337 337 342 335 334 334 334 334 336 336 336 337 337 337 335 332 329 329 329 324 318 318 318 318 315 310 307 308 305 301 295 293 298 295
333 336 339 341 343 341 340 339 339 335 336 339 334 332 330 332 332 335 336 335 336 337 336 334 332 330 327 324 324 323 319 317 314 314 312 309 304 306 306 304 294 293 302
327 331 334 336 337 336 335 335 335 333 331 334 334 331 328 329 332 333 333 333 331 332 333 336 333 329 325 325 325 327 325 320 316 311 308 305 301 300 302 307 318 316 306
320 326 329 331 331 333 332 333 333 331 330 327 329 329 326 326 326 326 332 331 332 331 332 333 331 327 325 327 332 330 329 329 324 319 318 323 323 319 324 329 350 346 29
315 320 323 325 327 329 330 330 328 329 328 325 325 326 326 324 322 320 320 327 331 333 332 330 325 324 327 329 329 328 328 329 330 335 336 335 336 350 347 326 319 344 337
308 312 316 320 323 325 325 326 327 327 326 325 324 324 322 322 324 321 318 320 322 332 330 326 323 324 325 325 326 327 324 324 323 321 325 323 325 319 317 311 312 309 318
303 308 312 317 320 322 324 325 326 326 325 323 323 322 322 320 319 318 318 319 322 327 325 322 322 321 318 321 322 321 321 320 318 317 317 316 319 320 319 320 321 318 326
300 306 309 315 317 320 322 323 324 323 323 322 321 321 321 320 320 319 317 320 317 317 320 318 321 316 315 317 322 321 322 319 316 316 324 322 321 317 313 317 319 314 317
298 303 307 311 315 319 322 322 322 321 321 321 321 321 320 321 322 321 320 319 316 314 313 315 314 313 315 319 318 321 327 323 325 326 330 335 332 320 320 318 318 318 321
295 300 305 310 315 318 320 320 320 320 319 321 322 322 322 322 322 323 322 321 318 314 312 315 306 306 316 315 317 325 323 324 323 324 329 325 324 327 328 323 319 323 324
294 297 303 308 313 316 318 317 316 316 317 320 320 321 320 320 321 322 322 322 319 316 310 305 307 305 305 310 309 318 317 315 313 313 318 321 330 329 324 330 335 329 326
293 297 302 307 312 315 316 315 314 315 316 318 320 320 320 320 319 318 318 316 314 311 306 291 297 298 297 300 302 308 318 323 321 321 318 319 325 329 334 334 336 331 332
292 296 301 304 310 312 311 311 312 313 317 318 320 320 321 321 317 315 312 310 307 302 299 292 292 290 288 291 297 307 318 324 326 330 348 351 334 324 335 340 341 340 330
291 296 300 302 308 306 307 309 312 315 317 319 322 321 322 318 314 311 308 308 308 298 293 296 295 291 290 279 286 302 314 324 329 330 337 341 348 350 347 344 341 336 336
290 295 299 305 303 304 307 310 314 316 318 320 321 321 323 321 316 311 308 306 304 288 286 292 289 290 290 278 285 299 310 321 323 325 330 331 338 343 341 339 341 339 338
289 295 299 297 298 304 307 312 318 318 320 322 325 327 325 324 323 324 315 311 306 293 281 287 287 282 286 277 283 297 306 316 321 325 331 330 338 341 335 342 346 344 342
291 299 295 294 296 304 310 315 320 323 325 329 328 326 325 326 327 321 317 319 310 303 288 287 288 281 274 275 290 299 307 318 326 344 347 341 339 342 344 345 348 344 342
298 293 290 294 299 308 318 325 328 332 331 328 326 324 324 327 333 332 325 317 302 299 289 288 291 284 281 283 291 300 321 333 344 348 337 344 347 345 343 341 341 340 339
294 294 295 297 301 312 322 329 331 328 327 328 329 327 328 331 332 335 331 318 309 300 306 311 310 301 285 288 301 336 333 353 333 342 335 344 349 347 343 339 333 337 337
291 294 301 304 307 312 327 328 328 328 326 326 325 327 329 328 330 342 344 326 322 308 310 315 309 301 290 292 305 324 9 355 359 346 341 343 354 342 337 332 340 340 339